SCOUT A DEB, 2777

Orbit data source: Space-Track

SCOUT A DEB, 2777 is space debris in LEO originally from a launch on Fri, 14 Apr 1967 UTC launched from the Air Force Western Test Range (AFWTR). Debris objects in space refer to the collection of defunct objects orbiting the Earth. Examples of debris include non-operational satellites, rocket bodies, and fragments generated from explosions, collisions, or faulty payload assembly.

Loading next visibility...
SCOUT A DEB details
Identifier
2777, 1967-034C
Orbit
LEO
Last TLE update10 hours ago
Origin
Flag of USUSN NAVAIR (US)
ManufacturerUnknown
MissionSpacecraft
Bus & MotorUnknown
MassUnknown
Launch date (UTC)
1967-04-14 (58 years ago)
Launch vehicleUnknown
Launch site
Air Force Western Test Range (AFWTR)
Object type
Payload
Rocket body
Debris
Shape & HBRUnknown
Radar Cross SectionSmall (<0.1 m²)

Expand to show TLE details & history

TLE from 10 hours ago
0 SCOUT A DEB
1 02777U 67034C   24356.82058445  .00001222  00000-0  70026-3 0  9994
2 02777  90.2560 228.8728 0132122  31.7558 329.1506 14.04736067933294
Epoch: 2024-12-21T19:41Z
Definitive object data (Epoch: 2024-12-21T19:41:38.496Z)
Latitude0.00002°
Longitude-157.40385°
Altitude798.496 km
Speed7.496 km/s
True Right ascension15h 15m 29s
True Declination0° 00' 00"
Sunlit
Object was in daylight at TLE epoch
Visualization TLE readout
Latitude10.64377°
Longitude-157.43955°
Altitude789.306 km
Speed7.506 km/s
Apparent Right ascension16h 00m 01s
Apparent Declination-13° 20' 28"
Sunlit
Object is in daylight
Visualization observer readout
Local Sidereal Time05:04:42
Azimuth32.668° NE
Elevation-59.862°
Doppler factor1
Orbital elements
Apogee altitude970.233 km
Perigee altitude778.589 km
Semi-major axis7,252.548 km
Eccentricity0.0132122
Inclination90.256°
RAAN228.8728°
Arg. of periapsis31.7558°
True anomaly328.36311°
Mean anomaly329.1506°
Eccentric anomaly328.75798°
Mean motion3.51404 °/min
BSTAR0.00070026
Orbital period102.45 mins
Loading maneuver chart data...
Loading historical data...
Loading historical data...
Loading historical data...
Loading historical data...
Loading historical data...
Loading historical data...
Loading historical data...

SCOUT A DEB Visibility forecast

Observer location: undefined°, undefined

Span
Click to sort rows by Start time (UTC) header in descending order
Start Az.
Max El. time (UTC)
Max El. Az.
Max El.
End time (UTC)
End Az.
4 mins2024-12-22 14:40:01.390Z94.354° ESE2024-12-22 14:42:01.390Z70.012° E13.203°2024-12-22 14:44:01.390Z46.422° ENE
8 mins2024-12-22 16:20:01.390Z191.282° SSW2024-12-22 16:24:01.390Z299.886° NW41.233°2024-12-22 16:28:01.390Z349.848° N
8 mins2024-12-23 03:04:01.390Z39.761° NE2024-12-23 03:07:01.390Z81.374° E24.582°2024-12-23 03:12:01.390Z140.381° SSE
9 mins2024-12-23 04:46:01.390Z337.337° NNW2024-12-23 04:50:01.390Z268.235° W32.33°2024-12-23 04:55:01.390Z212.699° SW
|